TimeMST,TemperatureF,Dew PointF,Humidity,Sea Level PressureIn,VisibilityMPH,Wind Direction,Wind SpeedMPH,Gust SpeedMPH,PrecipitationIn,Events,Conditions,WindDirDegrees,DateUTC
12:15 AM,33.8,24.8,70,30.36,10.0,South,3.5,-,N/A,,Clear,170,2012-11-20 07:15:00
12:35 AM,33.8,24.8,70,30.36,10.0,South,3.5,-,N/A,,Clear,180,2012-11-20 07:35:00
12:55 AM,32.0,23.0,69,30.36,10.0,Calm,Calm,-,N/A,,Clear,0,2012-11-20 07:55:00
1:15 AM,32.0,23.0,69,30.35,10.0,South,4.6,-,N/A,,Clear,170,2012-11-20 08:15:00
1:35 AM,32.0,24.8,75,30.35,10.0,South,4.6,-,N/A,,Clear,170,2012-11-20 08:35:00
5:15 AM,28.4,23.0,80,30.34,10.0,Calm,Calm,-,N/A,,Clear,0,2012-11-20 12:15:00
5:35 AM,28.4,23.0,80,30.34,10.0,South,3.5,-,N/A,,Clear,190,2012-11-20 12:35:00
5:55 AM,28.4,23.0,80,30.35,9.0,Calm,Calm,-,N/A,,Clear,0,2012-11-20 12:55:00
6:15 AM,26.6,21.2,80,30.35,10.0,Calm,Calm,-,N/A,,Clear,0,2012-11-20 13:15:00
6:35 AM,28.4,23.0,80,30.35,9.0,Calm,Calm,-,N/A,,Clear,0,2012-11-20 13:35:00
6:55 AM,28.4,21.2,74,30.35,10.0,Calm,Calm,-,N/A,,Clear,0,2012-11-20 13:55:00
7:15 AM,28.4,21.2,74,30.35,10.0,Calm,Calm,-,N/A,,Clear,0,2012-11-20 14:15:00
7:35 AM,26.6,21.2,80,30.35,9.0,Calm,Calm,-,N/A,,Clear,0,2012-11-20 14:35:00
7:55 AM,32.0,24.8,75,30.36,7.0,Calm,Calm,-,N/A,,Clear,0,2012-11-20 14:55:00
9:15 AM,44.6,24.8,46,30.36,10.0,Calm,Calm,-,N/A,,Clear,0,2012-11-20 16:15:00
9:35 AM,48.2,26.6,43,30.36,10.0,Calm,Calm,-,N/A,,Clear,0,2012-11-20 16:35:00
9:55 AM,51.8,24.8,35,30.36,10.0,Calm,Calm,-,N/A,,Clear,0,2012-11-20 16:55:00
10:15 AM,53.6,23.0,30,30.36,10.0,North,4.6,-,N/A,,Clear,350,2012-11-20 17:15:00
10:35 AM,55.4,23.0,29,30.35,10.0,NNW,4.6,-,N/A,,Clear,340,2012-11-20 17:35:00
10:55 AM,55.4,19.4,25,30.35,10.0,Calm,Calm,-,N/A,,Clear,0,2012-11-20 17:55:00
11:15 AM,55.4,19.4,25,30.34,10.0,Calm,Calm,-,N/A,,Clear,0,2012-11-20 18:15:00
11:35 AM,57.2,19.4,23,30.32,10.0,NNE,3.5,-,N/A,,Clear,20,2012-11-20 18:35:00
11:55 AM,57.2,17.6,21,30.31,10.0,Calm,Calm,-,N/A,,Clear,0,2012-11-20 18:55:00
12:15 PM,59.0,17.6,20,30.30,10.0,SW,3.5,-,N/A,,Clear,220,2012-11-20 19:15:00
12:35 PM,59.0,17.6,20,30.29,10.0,Calm,Calm,-,N/A,,Clear,0,2012-11-20 19:35:00
12:55 PM,59.0,15.8,19,30.28,10.0,NNE,4.6,-,N/A,,Clear,30,2012-11-20 19:55:00
1:15 PM,59.0,15.8,19,30.27,10.0,Calm,Calm,-,N/A,,Clear,0,2012-11-20 20:15:00
1:35 PM,60.8,15.8,17,30.26,10.0,Calm,Calm,-,N/A,,Clear,0,2012-11-20 20:35:00
1:55 PM,60.8,15.8,17,30.25,10.0,Calm,Calm,-,N/A,,Clear,0,2012-11-20 20:55:00
2:15 PM,62.6,15.8,16,30.24,10.0,SSE,3.5,-,N/A,,Clear,160,2012-11-20 21:15:00
2:35 PM,62.6,14.0,15,30.24,10.0,SW,8.1,-,N/A,,Clear,230,2012-11-20 21:35:00
2:55 PM,62.6,14.0,15,30.23,10.0,Calm,Calm,-,N/A,,Clear,0,2012-11-20 21:55:00
3:15 PM,62.6,14.0,15,30.23,10.0,Calm,Calm,-,N/A,,Clear,0,2012-11-20 22:15:00
3:35 PM,62.6,15.8,16,30.23,10.0,West,4.6,-,N/A,,Clear,270,2012-11-20 22:35:00
3:55 PM,60.8,17.6,19,30.23,10.0,WSW,8.1,-,N/A,,Clear,240,2012-11-20 22:55:00
4:15 PM,59.0,17.6,20,30.24,8.0,SW,6.9,-,N/A,,Clear,230,2012-11-20 23:15:00
4:35 PM,59.0,17.6,20,30.24,9.0,SW,6.9,-,N/A,,Clear,230,2012-11-20 23:35:00
4:55 PM,55.4,19.4,25,30.24,8.0,WSW,5.8,-,N/A,,Clear,250,2012-11-20 23:55:00
5:15 PM,53.6,19.4,26,30.25,9.0,WSW,4.6,-,N/A,,Clear,240,2012-11-21 00:15:00
5:35 PM,53.6,17.6,24,30.25,10.0,SW,3.5,-,N/A,,Clear,230,2012-11-21 00:35:00
5:55 PM,51.8,17.6,26,30.25,10.0,SW,3.5,-,N/A,,Clear,230,2012-11-21 00:55:00
6:15 PM,44.6,17.6,34,30.26,10.0,SSE,4.6,-,N/A,,Clear,160,2012-11-21 01:15:00
6:35 PM,44.6,17.6,34,30.26,10.0,SSE,6.9,-,N/A,,Clear,160,2012-11-21 01:35:00
6:55 PM,42.8,17.6,36,30.27,10.0,South,4.6,-,N/A,,Clear,170,2012-11-21 01:55:00
7:15 PM,41.0,17.6,39,30.27,10.0,Calm,Calm,-,N/A,,Clear,0,2012-11-21 02:15:00
7:35 PM,42.8,17.6,36,30.27,10.0,Calm,Calm,-,N/A,,Clear,0,2012-11-21 02:35:00
7:55 PM,42.8,17.6,36,30.27,10.0,Calm,Calm,-,N/A,,Clear,0,2012-11-21 02:55:00
8:15 PM,42.8,17.6,36,30.27,10.0,Calm,Calm,-,N/A,,Clear,0,2012-11-21 03:15:00
8:35 PM,41.0,17.6,39,30.27,10.0,Calm,Calm,-,N/A,,Clear,0,2012-11-21 03:35:00
8:55 PM,41.0,17.6,39,30.27,10.0,Calm,Calm,-,N/A,,Clear,0,2012-11-21 03:55:00
9:15 PM,39.2,19.4,45,30.27,10.0,SSW,3.5,-,N/A,,Clear,210,2012-11-21 04:15:00
9:35 PM,39.2,19.4,45,30.27,10.0,South,4.6,-,N/A,,Clear,190,2012-11-21 04:35:00
9:55 PM,39.2,19.4,45,30.27,9.0,South,10.4,-,N/A,,Clear,180,2012-11-21 04:55:00
10:15 PM,41.0,19.4,42,30.26,10.0,South,10.4,-,N/A,,Clear,180,2012-11-21 05:15:00
10:35 PM,41.0,17.6,39,30.26,10.0,South,10.4,-,N/A,,Clear,170,2012-11-21 05:35:00
10:55 PM,41.0,17.6,39,30.26,9.0,South,10.4,-,N/A,,Clear,180,2012-11-21 05:55:00
11:15 PM,41.0,17.6,39,30.26,10.0,South,11.5,-,N/A,,Clear,180,2012-11-21 06:15:00
11:35 PM,39.2,17.6,42,30.25,10.0,South,11.5,-,N/A,,Clear,180,2012-11-21 06:35:00
11:55 PM,39.2,19.4,45,30.25,10.0,South,10.4,-,N/A,,Clear,180,2012-11-21 06:55:00